User: anonymous   Login
Location: Dunedin
(45.8670°S, 170.5000°E)
Time: 21:32:05
(UTC+13:00)
Language:

H-2A R/B - Orbit

View from above orbital plane
View from above orbital plane
View from above satellite
View from above satellite

Ground track
Ground track

The orbit data is extracted from the following two-line orbital elements,

1 27601U 02056E   19083.76073222 +.00000040 +00000-0 +29481-4 0  9991
2 27601 098.2872 136.1717 0072341 177.8741 292.3921 14.31884256850195
Epoch (UTC): 24 March 2019 18:15:27
Eccentricity: 0.0072341
inclination: 98.2872°
perigee height: 733 km
apogee height: 837 km
right ascension of ascending node: 136.1717°
argument of perigee: 177.8741°
revolutions per day: 14.31884256
mean anomaly at epoch: 292.3921°
orbit number at epoch: 85019

The dashed part of the orbit path shows where the satellite is in the earth's shadow,  

DLR